Year,Month,Day,Hour,Minute,Value (Times are PST for temperature in C)
2019,12,05,00,02,3.50
2019,12,05,00,03,3.50
2019,12,05,00,04,3.50
2019,12,05,00,05,3.40
2019,12,05,00,06,3.40
2019,12,05,00,07,3.40
2019,12,05,00,08,3.40
2019,12,05,00,09,3.40
2019,12,05,00,10,3.40
2019,12,05,00,11,3.40
2019,12,05,00,12,3.40
2019,12,05,00,13,3.40
2019,12,05,00,14,3.50
2019,12,05,00,15,3.50
2019,12,05,00,16,3.50
2019,12,05,00,17,3.50
2019,12,05,00,18,3.60
2019,12,05,00,19,3.60
2019,12,05,00,20,3.60
2019,12,05,00,21,3.60
2019,12,05,00,22,3.60
2019,12,05,00,23,3.60
2019,12,05,00,24,3.60
2019,12,05,00,25,3.60
2019,12,05,00,26,3.60
2019,12,05,00,27,3.60
2019,12,05,00,28,3.60
2019,12,05,00,29,3.60
2019,12,05,00,30,3.60
2019,12,05,00,31,3.60
2019,12,05,00,32,3.60
2019,12,05,00,33,3.60
2019,12,05,00,34,3.50
2019,12,05,00,35,3.50
2019,12,05,00,36,3.50
2019,12,05,00,37,3.50
2019,12,05,00,38,3.50
2019,12,05,00,39,3.50
2019,12,05,00,40,3.50
2019,12,05,00,41,3.50
2019,12,05,00,42,3.60
2019,12,05,00,43,3.60
2019,12,05,00,44,3.60
2019,12,05,00,45,3.70
2019,12,05,00,46,3.70
2019,12,05,00,47,3.70
2019,12,05,00,48,3.70
2019,12,05,00,49,3.70
2019,12,05,00,50,3.70
2019,12,05,00,51,3.80
2019,12,05,00,52,3.80
2019,12,05,00,53,3.80
2019,12,05,00,54,3.80
2019,12,05,00,55,3.80
2019,12,05,00,56,3.80
2019,12,05,00,57,3.80
2019,12,05,00,58,3.80
2019,12,05,00,59,3.80
2019,12,05,01,00,3.80
2019,12,05,01,01,3.80
2019,12,05,01,02,3.80
2019,12,05,01,03,3.80
2019,12,05,01,04,3.90
2019,12,05,01,05,3.90
2019,12,05,01,06,3.90
2019,12,05,01,07,3.90
2019,12,05,01,08,3.90
2019,12,05,01,09,3.90
2019,12,05,01,10,3.90
2019,12,05,01,11,3.90
2019,12,05,01,12,3.90
2019,12,05,01,13,3.90
2019,12,05,01,14,3.90
2019,12,05,01,15,3.90
2019,12,05,01,16,3.90
2019,12,05,01,17,3.90
2019,12,05,01,18,3.80
2019,12,05,01,19,3.80
2019,12,05,01,20,3.80
2019,12,05,01,21,3.80
2019,12,05,01,22,3.80
2019,12,05,01,23,3.80
2019,12,05,01,24,3.80
2019,12,05,01,25,3.80
2019,12,05,01,26,3.80
2019,12,05,01,27,3.80
2019,12,05,01,28,3.80
2019,12,05,01,29,3.70
2019,12,05,01,30,3.70
2019,12,05,01,31,3.70
2019,12,05,01,32,3.70
2019,12,05,01,33,3.70
2019,12,05,01,34,3.70
2019,12,05,01,35,3.70
2019,12,05,01,36,3.70
2019,12,05,01,37,3.70
2019,12,05,01,38,3.70
2019,12,05,01,39,3.70
2019,12,05,01,40,3.70
2019,12,05,01,41,3.70
2019,12,05,01,42,3.70
2019,12,05,01,43,3.70
2019,12,05,01,44,3.70
2019,12,05,01,45,3.70
2019,12,05,01,46,3.70
2019,12,05,01,47,3.80
2019,12,05,01,48,3.80
2019,12,05,01,49,3.80
2019,12,05,01,50,3.70
2019,12,05,01,51,3.70
2019,12,05,01,52,3.70
2019,12,05,01,53,3.70
2019,12,05,01,54,3.70
2019,12,05,01,55,3.70
2019,12,05,01,56,3.70
2019,12,05,01,57,3.70
2019,12,05,01,58,3.80
2019,12,05,01,59,3.80
2019,12,05,02,00,3.80
2019,12,05,02,01,3.80
2019,12,05,02,02,3.80
2019,12,05,02,03,3.80
2019,12,05,02,04,3.80
2019,12,05,02,05,3.80
2019,12,05,02,06,3.80
2019,12,05,02,07,3.80
2019,12,05,02,08,3.80
2019,12,05,02,09,3.80
2019,12,05,02,10,3.80
2019,12,05,02,11,3.80
2019,12,05,02,12,3.80
2019,12,05,02,13,3.80
2019,12,05,02,14,3.80
2019,12,05,02,15,3.80
2019,12,05,02,16,3.90
2019,12,05,02,17,3.90
2019,12,05,02,18,3.90
2019,12,05,02,19,3.90
2019,12,05,02,20,4.00
2019,12,05,02,21,4.00
2019,12,05,02,22,4.10
2019,12,05,02,23,4.10
2019,12,05,02,24,4.10
2019,12,05,02,25,4.10
2019,12,05,02,26,4.10
2019,12,05,02,27,4.10
2019,12,05,02,28,4.20
2019,12,05,02,29,4.20
2019,12,05,02,30,4.20
2019,12,05,02,31,4.20
2019,12,05,02,32,4.20
2019,12,05,02,33,4.20
2019,12,05,02,34,4.20
2019,12,05,02,35,4.20
2019,12,05,02,36,4.20
2019,12,05,02,37,4.30
2019,12,05,02,38,4.30
2019,12,05,02,39,4.30
2019,12,05,02,40,4.30
2019,12,05,02,41,4.20
2019,12,05,02,42,4.20
2019,12,05,02,43,4.20
2019,12,05,02,44,4.20
2019,12,05,02,45,4.20
2019,12,05,02,46,4.30
2019,12,05,02,47,4.30
2019,12,05,02,48,4.30
2019,12,05,02,49,4.30
2019,12,05,02,50,4.30
2019,12,05,02,51,4.30
2019,12,05,02,52,4.30
2019,12,05,02,53,4.30
2019,12,05,02,54,4.30
2019,12,05,02,55,4.30
2019,12,05,02,56,4.30
2019,12,05,02,57,4.30
2019,12,05,02,58,4.30
2019,12,05,02,59,4.40
2019,12,05,03,00,4.40
2019,12,05,03,01,4.40
2019,12,05,03,02,4.40
2019,12,05,03,03,4.30
2019,12,05,03,04,4.30
2019,12,05,03,05,4.30
2019,12,05,03,06,4.30
2019,12,05,03,07,4.30
2019,12,05,03,08,4.30
2019,12,05,03,09,4.30
2019,12,05,03,10,4.30
2019,12,05,03,11,4.30
2019,12,05,03,12,4.30
2019,12,05,03,13,4.30
2019,12,05,03,14,4.30
2019,12,05,03,15,4.30
2019,12,05,03,16,4.30
2019,12,05,03,17,4.30
2019,12,05,03,18,4.30
2019,12,05,03,19,4.30
2019,12,05,03,20,4.30
2019,12,05,03,21,4.30
2019,12,05,03,22,4.30
2019,12,05,03,23,4.30
2019,12,05,03,24,4.30
2019,12,05,03,25,4.30
2019,12,05,03,26,4.30
2019,12,05,03,27,4.30
2019,12,05,03,28,4.30
2019,12,05,03,29,4.30
2019,12,05,03,30,4.30
2019,12,05,03,31,4.30
2019,12,05,03,32,4.30
2019,12,05,03,33,4.30
2019,12,05,03,34,4.30
2019,12,05,03,35,4.30
2019,12,05,03,36,4.30
2019,12,05,03,37,4.20
2019,12,05,03,38,4.20
2019,12,05,03,39,4.20
2019,12,05,03,40,4.20
2019,12,05,03,41,4.20
2019,12,05,03,42,4.20
2019,12,05,03,43,4.20
2019,12,05,03,44,4.20
2019,12,05,03,45,4.20
2019,12,05,03,46,4.10
2019,12,05,03,47,4.10
2019,12,05,03,48,4.10
2019,12,05,03,49,4.00
2019,12,05,03,50,4.00
2019,12,05,03,51,4.00
2019,12,05,03,52,3.90
2019,12,05,03,53,3.90
2019,12,05,03,54,3.90
2019,12,05,03,55,3.90
2019,12,05,03,56,3.90
2019,12,05,03,57,3.80
2019,12,05,03,58,3.80
2019,12,05,03,59,3.80
2019,12,05,04,00,3.80
2019,12,05,04,01,3.80
2019,12,05,04,02,3.80
2019,12,05,04,03,3.80
2019,12,05,04,04,3.80
2019,12,05,04,05,3.80
2019,12,05,04,06,3.80
2019,12,05,04,07,3.80
2019,12,05,04,08,3.80
2019,12,05,04,09,3.80
2019,12,05,04,10,3.80
2019,12,05,04,11,3.80
2019,12,05,04,12,3.80
2019,12,05,04,13,3.80
2019,12,05,04,14,3.70
2019,12,05,04,15,3.80
2019,12,05,04,16,3.70
2019,12,05,04,17,3.70
2019,12,05,04,18,3.70
2019,12,05,04,19,3.70
2019,12,05,04,20,3.70
2019,12,05,04,21,3.70
2019,12,05,04,22,3.70
2019,12,05,04,23,3.70
2019,12,05,04,24,3.80
2019,12,05,04,25,3.80
2019,12,05,04,26,3.80
2019,12,05,04,27,3.80
2019,12,05,04,28,3.80
2019,12,05,04,29,3.80
2019,12,05,04,30,3.80
2019,12,05,04,31,3.90
2019,12,05,04,32,3.90
2019,12,05,04,33,3.90
2019,12,05,04,34,3.90
2019,12,05,04,35,3.90
2019,12,05,04,36,4.00
2019,12,05,04,37,4.00
2019,12,05,04,38,4.00
2019,12,05,04,39,4.10
2019,12,05,04,40,4.10
2019,12,05,04,41,4.10
2019,12,05,04,42,4.20
2019,12,05,04,43,4.20
2019,12,05,04,44,4.20
2019,12,05,04,45,4.20
2019,12,05,04,46,4.20
2019,12,05,04,47,4.20
2019,12,05,04,48,4.30
2019,12,05,04,49,4.30
2019,12,05,04,50,4.30
2019,12,05,04,51,4.30
2019,12,05,04,52,4.30
2019,12,05,04,53,4.30
2019,12,05,04,54,4.40
2019,12,05,04,55,4.40
2019,12,05,04,56,4.40
2019,12,05,04,57,4.40
2019,12,05,04,58,4.40
2019,12,05,04,59,4.40
2019,12,05,05,00,4.50
2019,12,05,05,01,4.50
2019,12,05,05,02,4.50
2019,12,05,05,03,4.50
2019,12,05,05,04,4.50
2019,12,05,05,05,4.60
2019,12,05,05,06,4.60
2019,12,05,05,07,4.60
2019,12,05,05,08,4.60
2019,12,05,05,09,4.60
2019,12,05,05,10,4.60
2019,12,05,05,11,4.60
2019,12,05,05,12,4.60
2019,12,05,05,13,4.60
2019,12,05,05,14,4.60
2019,12,05,05,15,4.60
2019,12,05,05,16,4.60
2019,12,05,05,17,4.60
2019,12,05,05,18,4.60
2019,12,05,05,19,4.60
2019,12,05,05,20,4.60
2019,12,05,05,21,4.60
2019,12,05,05,22,4.60
2019,12,05,05,23,4.60
2019,12,05,05,24,4.60
2019,12,05,05,25,4.50
2019,12,05,05,26,4.50
2019,12,05,05,27,4.50
2019,12,05,05,28,4.50
2019,12,05,05,29,4.40
2019,12,05,05,30,4.40
2019,12,05,05,31,4.40
2019,12,05,05,32,4.40
2019,12,05,05,33,4.40
2019,12,05,05,34,4.40
2019,12,05,05,35,4.40
2019,12,05,05,36,4.40
2019,12,05,05,37,4.40
2019,12,05,05,38,4.40
2019,12,05,05,39,4.40
2019,12,05,05,40,4.40
2019,12,05,05,41,4.40
2019,12,05,18,59,6.30
2019,12,05,19,00,6.30
2019,12,05,19,01,6.30
2019,12,05,19,02,6.30
2019,12,05,19,03,6.30
2019,12,05,19,04,6.30
2019,12,05,19,05,6.30
2019,12,05,19,06,6.30
2019,12,05,19,07,6.30
2019,12,05,19,08,6.30
2019,12,05,19,09,6.30
2019,12,05,19,10,6.30
2019,12,05,19,11,6.30
2019,12,05,19,12,6.30
2019,12,05,19,13,6.30
2019,12,05,19,14,6.30
2019,12,05,19,15,6.30
2019,12,05,19,16,6.30
2019,12,05,19,17,6.30
2019,12,05,19,18,6.30
2019,12,05,19,19,6.30
2019,12,05,19,20,6.20
2019,12,05,19,21,6.20
2019,12,05,19,22,6.20
2019,12,05,19,23,6.20
2019,12,05,19,24,6.20
2019,12,05,19,25,6.20
2019,12,05,19,26,6.20
2019,12,05,19,27,6.20
2019,12,05,19,28,6.20
2019,12,05,19,29,6.20
2019,12,05,19,30,6.20
2019,12,05,19,31,6.20
2019,12,05,19,32,6.20
2019,12,05,19,33,6.20
2019,12,05,19,34,6.20
2019,12,05,19,35,6.20
2019,12,05,19,36,6.20
2019,12,05,19,37,6.20
2019,12,05,19,38,6.20
2019,12,05,19,39,6.20
2019,12,05,19,40,6.20
2019,12,05,19,41,6.20
2019,12,05,19,42,6.20
2019,12,05,19,43,6.20
2019,12,05,19,44,6.20
2019,12,05,19,45,6.20
2019,12,05,19,46,6.20
2019,12,05,19,47,6.20
2019,12,05,19,48,6.20
2019,12,05,19,49,6.20
2019,12,05,19,50,6.20
2019,12,05,19,51,6.20
2019,12,05,19,52,6.20
2019,12,05,19,53,6.30
2019,12,05,19,54,6.30
2019,12,05,19,55,6.30
2019,12,05,19,56,6.30
2019,12,05,19,57,6.30
2019,12,05,19,58,6.30
2019,12,05,19,59,6.30
2019,12,05,20,00,6.20
2019,12,05,20,01,6.20
2019,12,05,20,02,6.30
2019,12,05,20,03,6.20
2019,12,05,20,04,6.20
2019,12,05,20,05,6.20
2019,12,05,20,06,6.20
2019,12,05,20,07,6.20
2019,12,05,20,08,6.20
2019,12,05,20,09,6.20
2019,12,05,20,10,6.20
2019,12,05,20,11,6.20
2019,12,05,20,12,6.20
2019,12,05,20,13,6.20
2019,12,05,20,14,6.20
2019,12,05,20,15,6.20
2019,12,05,20,16,6.10
2019,12,05,20,17,6.10
2019,12,05,20,18,6.10
2019,12,05,20,19,6.00
2019,12,05,20,20,6.00
2019,12,05,20,21,6.00
2019,12,05,20,22,5.90
2019,12,05,20,23,5.90
2019,12,05,20,24,5.90
2019,12,05,20,25,5.80
2019,12,05,20,26,5.80
2019,12,05,20,27,5.80
2019,12,05,20,28,5.80
2019,12,05,20,29,5.80
2019,12,05,20,30,5.70
2019,12,05,20,31,5.70
2019,12,05,20,32,5.70
2019,12,05,20,33,5.70
2019,12,05,20,34,5.70
2019,12,05,20,35,5.70
2019,12,05,20,36,5.70
2019,12,05,20,37,5.70
2019,12,05,20,38,5.60
2019,12,05,20,39,5.60
2019,12,05,20,40,5.60
2019,12,05,20,41,5.60
2019,12,05,20,42,5.60
2019,12,05,20,43,5.70
2019,12,05,20,44,5.70
2019,12,05,20,45,5.70
2019,12,05,20,46,5.70
2019,12,05,20,47,5.70
2019,12,05,20,48,5.70
2019,12,05,20,49,5.70
2019,12,05,20,50,5.70
2019,12,05,20,51,5.70
2019,12,05,20,52,5.70
2019,12,05,20,53,5.70
2019,12,05,20,54,5.70
2019,12,05,20,55,5.70
2019,12,05,20,56,5.70
2019,12,05,20,57,5.70
2019,12,05,20,58,5.70
2019,12,05,20,59,5.70
2019,12,05,21,00,5.70
2019,12,05,21,01,5.70
2019,12,05,21,02,5.70
2019,12,05,21,03,5.70
2019,12,05,21,04,5.70
2019,12,05,21,05,5.70
2019,12,05,21,06,5.70
2019,12,05,21,07,5.70
2019,12,05,21,08,5.70
2019,12,05,21,09,5.70
2019,12,05,21,10,5.80
2019,12,05,21,11,5.80
2019,12,05,21,12,5.80
2019,12,05,21,13,5.80
2019,12,05,21,14,5.90
2019,12,05,21,15,5.90
2019,12,05,21,16,5.90
2019,12,05,21,17,5.90
2019,12,05,21,18,5.90
2019,12,05,21,19,6.00
2019,12,05,21,20,6.00
2019,12,05,21,21,6.10
2019,12,05,21,22,6.10
2019,12,05,21,23,6.10
2019,12,05,21,24,6.10
2019,12,05,21,25,6.10
2019,12,05,21,26,6.10
2019,12,05,21,27,6.10
2019,12,05,21,28,6.10
2019,12,05,21,29,6.10
2019,12,05,21,30,6.10
2019,12,05,21,31,6.10
2019,12,05,21,32,6.10
2019,12,05,21,33,6.10
2019,12,05,21,34,6.00
2019,12,05,21,35,6.00
2019,12,05,21,36,6.00
2019,12,05,21,37,6.00
2019,12,05,21,38,6.00
2019,12,05,21,39,6.00
2019,12,05,21,40,5.90
2019,12,05,21,41,5.90
2019,12,05,21,42,5.90
2019,12,05,21,43,5.90
2019,12,05,21,44,5.90
2019,12,05,21,45,5.90
2019,12,05,21,46,5.90
2019,12,05,21,47,6.00
2019,12,05,21,48,6.00
2019,12,05,21,49,6.00
2019,12,05,21,50,6.00
2019,12,05,21,51,6.00
2019,12,05,21,52,6.00
2019,12,05,21,53,6.00
2019,12,05,21,54,6.00
2019,12,05,21,55,6.00
2019,12,05,21,56,6.00
2019,12,05,21,57,6.00
2019,12,05,21,58,6.00
2019,12,05,21,59,6.00
2019,12,05,22,00,6.00
2019,12,05,22,01,6.00
2019,12,05,22,02,6.00
2019,12,05,22,03,6.00
2019,12,05,22,04,6.00
2019,12,05,22,05,6.00
2019,12,05,22,06,6.00
2019,12,05,22,07,6.00
2019,12,05,22,08,6.00
2019,12,05,22,09,6.00
2019,12,05,22,10,6.00
2019,12,05,22,11,6.00
2019,12,05,22,12,6.00
2019,12,05,22,13,6.00
2019,12,05,22,14,6.00
2019,12,05,22,15,6.00
2019,12,05,22,16,6.00
2019,12,05,22,17,6.00
2019,12,05,22,18,6.00
2019,12,05,22,19,6.00
2019,12,05,22,20,6.00
2019,12,05,22,21,6.00
2019,12,05,22,22,6.00
2019,12,05,22,23,6.00
2019,12,05,22,24,6.00
2019,12,05,22,25,6.00
2019,12,05,22,26,6.00
2019,12,05,22,27,6.00
2019,12,05,22,28,6.10
2019,12,05,22,29,6.10
2019,12,05,22,30,6.10
2019,12,05,22,31,6.10
2019,12,05,22,32,6.10
2019,12,05,22,33,6.10
2019,12,05,22,34,6.10
2019,12,05,22,35,6.20
2019,12,05,22,36,6.20
2019,12,05,22,37,6.20
2019,12,05,22,38,6.20
2019,12,05,22,39,6.30
2019,12,05,22,40,6.30
2019,12,05,22,41,6.30
2019,12,05,22,42,6.40
2019,12,05,22,43,6.30
2019,12,05,22,44,6.40
2019,12,05,22,45,6.40
2019,12,05,22,46,6.40
2019,12,05,22,47,6.40
2019,12,05,22,48,6.50
2019,12,05,22,49,6.50
2019,12,05,22,50,6.50
2019,12,05,22,51,6.50
2019,12,05,22,52,6.50
2019,12,05,22,53,6.60
2019,12,05,22,54,6.60
2019,12,05,22,55,6.60
2019,12,05,22,56,6.60
2019,12,05,22,57,6.60
2019,12,05,22,58,6.60
2019,12,05,22,59,6.60
2019,12,05,23,00,6.60
2019,12,05,23,01,6.60
2019,12,05,23,02,6.60
2019,12,05,23,03,6.60
2019,12,05,23,04,6.60
2019,12,05,23,05,6.60
2019,12,05,23,06,6.60
2019,12,05,23,07,6.60
2019,12,05,23,08,6.60
2019,12,05,23,09,6.60
2019,12,05,23,10,6.60
2019,12,05,23,11,6.60
2019,12,05,23,12,6.50
2019,12,05,23,13,6.50
2019,12,05,23,14,6.50
2019,12,05,23,15,6.50
2019,12,05,23,16,6.50
2019,12,05,23,17,6.50
2019,12,05,23,18,6.50
2019,12,05,23,19,6.50
2019,12,05,23,20,6.40
2019,12,05,23,21,6.40
2019,12,05,23,22,6.40
2019,12,05,23,23,6.40
2019,12,05,23,24,6.40
2019,12,05,23,25,6.40
2019,12,05,23,26,6.40
2019,12,05,23,27,6.40
2019,12,05,23,28,6.40
2019,12,05,23,29,6.40
2019,12,05,23,30,6.40
2019,12,05,23,31,6.40
2019,12,05,23,32,6.40
2019,12,05,23,33,6.30
2019,12,05,23,34,6.30
2019,12,05,23,35,6.30
2019,12,05,23,36,6.30
2019,12,05,23,37,6.30
2019,12,05,23,38,6.30
2019,12,05,23,39,6.30
2019,12,05,23,40,6.30
2019,12,05,23,41,6.40
2019,12,05,23,42,6.40
2019,12,05,23,43,6.30
2019,12,05,23,44,6.30
2019,12,05,23,45,6.30
2019,12,05,23,46,6.30
2019,12,05,23,47,6.30
2019,12,05,23,48,6.30
2019,12,05,23,49,6.30
2019,12,05,23,50,6.30
2019,12,05,23,51,6.30
2019,12,05,23,52,6.30
2019,12,05,23,53,6.30
2019,12,05,23,54,6.30
2019,12,05,23,55,6.30
2019,12,05,23,56,6.30
2019,12,05,23,57,6.20
2019,12,05,23,58,6.20
2019,12,05,23,59,6.20
